• Join FlightAware (Why Join?)
  • Login
  • US Flag 
07:19AM EDT


 

Airport Tracker/Info


-or-


 

Live Flight TrackerFlight Track Log ✈ N36866 ✈ 19-Mar-2012 ✈ KONT - KWVI

Flight Track Log - Related Links

Times and Time Zones

All times are in EDT time to prevent confusion due to time zone crossing. See the N36866 flight status page for this flight to view local times or setup timezone preferences in your user account.

Time Position Orientation Groundspeed Altitude Reporting Facility
EDT Latitude Longitude Course Direction KTS MPH feet Rate Location/Type
01:15PM 34.0500 -117.6333 293° West 193 222 2,400  Level Southern California TRACON
01:17PM 34.1175 -117.8275 313° West 261 300 8,600 3,120 Climbing Los Angeles Center
01:18PM 34.1606 -117.8836 305° West 261 300 13,000 3,300 Climbing Los Angeles Center
01:19PM 34.2053 -117.9597 307° West 265 305 15,300 2,400 Climbing Los Angeles Center
01:20PM 34.2542 -118.0389 306° West 278 320 17,800 2,520 Climbing Los Angeles Center
01:21PM 34.3031 -118.1203 309° West 291 335 20,400 2,520 Climbing Los Angeles Center
01:22PM 34.3497 -118.1894 310° West 286 329 22,900 1,680 Climbing Los Angeles Center
01:23PM 34.4006 -118.2636 308° West 286 329 23,800 1,500 Climbing Los Angeles Center
01:24PM 34.4514 -118.3431 312° West 281 323 25,900 1,560 Climbing Los Angeles Center
01:25PM 34.5003 -118.4100 309° West 275 316 27,000 540 Climbing Los Angeles Center
01:26PM 34.5511 -118.4869 309° West 283 326 27,000 240 Level Los Angeles Center
01:27PM 34.6036 -118.5667 310° West 293 337 27,500 1,020 Climbing Los Angeles Center
01:28PM 34.6564 -118.6439 309° West 299 344 29,100 1,200 Climbing Los Angeles Center
01:29PM 34.7069 -118.7189 307° West 299 344 30,000 420 Climbing Los Angeles Center
01:30PM 34.7572 -118.8014 309° West 299 344 30,000  Level Los Angeles Center
01:31PM 34.8078 -118.8764 328° Northwest 306 352 30,000  Level Los Angeles Center
01:32PM 34.8836 -118.9344 329° Northwest 306 352 30,000  Level Los Angeles Center
01:33PM 34.9678 -118.9956 326° Northwest 317 365 30,000  Level Los Angeles Center
01:34PM 35.0436 -119.0592 327° Northwest 322 371 30,000  Level Los Angeles Center
01:35PM 35.1214 -119.1203 325° Northwest 327 376 30,000  Level Los Angeles Center
01:36PM 35.1969 -119.1842 326° Northwest 327 376 30,000  Level Los Angeles Center
01:37PM 35.2747 -119.2481 326° Northwest 327 376 30,000  Level Los Angeles Center
01:38PM 35.3503 -119.3097 325° Northwest 327 376 30,000  Level Los Angeles Center
01:39PM 35.4258 -119.3736 301° West 327 376 30,000  Level Los Angeles Center
01:40PM 35.4753 -119.4753 293° West 327 376 30,000  Level Los Angeles Center
01:43PM 35.5597 -119.7231 295° West 347 399 30,000  Level Oakland Center
01:44PM 35.6003 -119.8322 292° West 360 414 30,000  Level Oakland Center
01:45PM 35.6369 -119.9467 304° West 360 414 30,000  Level Oakland Center
01:46PM 35.6919 -120.0456 308° West 354 407 30,000  Level Oakland Center
01:47PM 35.7511 -120.1394 308° West 349 402 30,000 -120 Level Oakland Center
01:48PM 35.8100 -120.2336 308° West 349 402 29,800 -900 Descending Oakland Center
01:49PM 35.8692 -120.3278 308° West 349 402 28,300 -960 Descending Oakland Center
01:50PM 35.9281 -120.4222 309° West 349 402 27,900 -1,080 Descending Oakland Center
01:51PM 35.9889 -120.5167 308° West 349 402 26,200 -1,860 Descending Oakland Center
01:52PM 36.0497 -120.6139 308° West 361 415 24,200 -2,040 Descending Oakland Center
01:53PM 36.1083 -120.7064 308° West 356 410 22,200 -2,040 Descending Oakland Center
01:54PM 36.1628 -120.7936 307° West 341 392 20,200 -2,040 Descending Oakland Center
01:55PM 36.2150 -120.8808 308° West 330 380 18,200 -1,920 Descending Oakland Center
01:56PM 36.2692 -120.9658 308° West 325 374 16,400 -1,980 Descending Oakland Center
01:57PM 36.3236 -121.0533 308° West 320 368 14,300 -2,040 Descending Oakland Center
01:58PM 36.3778 -121.1386 307° West 320 368 12,400 -1,980 Descending Oakland Center
01:59PM 36.4233 -121.2136 307° West 301 346 10,400 -1,260 Descending Oakland Center
02:00PM 36.4669 -121.2861 308° West 284 327 9,900 -900 Descending Oakland Center
02:01PM 36.5128 -121.3586 306° West 268 308 8,700 -1,140 Descending Oakland Center
02:02PM 36.5542 -121.4286 307° West 263 303 7,700 -1,020 Descending Oakland Center
02:03PM 36.5956 -121.4961 307° West 258 297 6,700 -900 Descending Oakland Center
02:04PM 36.6369 -121.5636 311° West 253 291 5,900 -900 Descending Oakland Center
02:05PM 36.6783 -121.6236 328° Northwest 241 277 5,000 -480 Descending Oakland Center
02:06PM 36.7333 -121.6667 338° Northwest 239 275 5,000  Level Northern Cal TRACON
02:07PM 36.8000 -121.7000 349° North 254 292 5,000 -420 Level Northern Cal TRACON
02:08PM 36.8667 -121.7167 360° North 215 247 4,200 -1,140 Descending Northern Cal TRACON
02:09PM 36.9167 -121.7167 321° Northwest 170 196 2,800 -1,440 Descending Northern Cal TRACON
02:10PM 36.9500 -121.7500 270° West 145 167 1,400 -1,200 Descending Northern Cal TRACON
02:11PM 36.9500 -121.7833 270° West 139 160 500 -900 Descending Northern Cal TRACON